FW0067 Weather Reports


Display with metric or nautical units.
time (UTC)temp
F
wind
direction
speed
MPH
gust
MPH
rain 1hr
in
rain 24hr
in
rain mn
in
humidity
%
barometer
mb
20240530011706 61 311 10.0 20.0 0.00 0.01 0.01 71 1029.8
20240530011206 61 323 14.0 20.0 0.00 0.01 0.01 69 1029.8
20240530010706 61 323 10.0 20.0 0.00 0.01 0.01 70 1029.7
20240530010206 61 312 12.0 20.0 0.00 0.01 0.01 71 1029.8
20240530005706 61 330 10.0 17.0 0.00 0.01 0.01 71 1029.8
20240530005206 61 329 7.0 16.0 0.00 0.01 0.01 73 1029.9
20240530004706 60 328 9.0 16.0 0.01 0.01 0.01 76 1030.0
20240530003706 58 312 5.0 12.0 0.01 0.01 0.01 78 1030.2
20240530003205 58 307 6.0 12.0 0.01 0.01 0.01 78 1030.4
20240530002206 57 329 6.0 14.0 0.01 0.01 0.01 79 1030.8
20240530001706 57 338 6.0 14.0 0.01 0.01 0.01 80 1031.0
20240530000206 53 330 6.0 12.0 0.01 0.01 0.01 93 1031.5
20240529235206 50 300 2.0 6.0 0.01 0.01 0.01 97 1031.7
20240529234206 49 295 2.0 5.0 0.00 0.00 0.00 98 1031.8
20240529233706 48 294 2.0 5.0 0.00 0.00 0.00 98 1031.7
20240529233206 47 292 2.0 5.0 0.00 0.00 0.00 97 1031.8
20240529232206 44 291 0.0 0.0 0.00 0.00 0.00 97 1031.8
20240529231706 44 291 0.0 0.0 0.00 0.00 0.00 97 1031.8
20240529231206 43 291 0.0 0.0 0.00 0.00 0.00 97 1031.9
20240529230205 43 291 0.0 0.0 0.00 0.00 0.00 97 1031.8
20240529225206 41 291 0.0 0.0 0.00 0.00 0.00 97 1031.8
20240529224706 41 291 0.0 0.0 0.00 0.00 0.00 97 1031.8
20240529224206 40 291 0.0 0.0 0.00 0.00 0.00 97 1031.8
20240529223706 39 291 0.0 0.0 0.00 0.00 0.00 97 1031.7
20240529223205 39 291 0.0 0.0 0.00 0.00 0.00 96 1031.7
20240529222706 38 291 0.0 0.0 0.00 0.00 0.00 96 1031.7
20240529221705 38 291 0.0 0.0 0.00 0.01 0.00 96 1031.8
20240529221206 38 291 0.0 0.0 0.00 0.01 0.00 96 1031.9
20240529220706 37 291 0.0 0.0 0.00 0.01 0.00 96 1031.9
20240529220206 37 291 0.0 0.0 0.00 0.01 0.00 96 1031.9
20240529215706 36 291 0.0 0.0 0.00 0.01 0.00 96 1031.9
20240529215206 35 291 0.0 0.0 0.00 0.01 0.00 96 1031.9
20240529214706 35 291 0.0 0.0 0.00 0.01 0.00 95 1031.8
20240529214205 34 291 0.0 0.0 0.00 0.01 0.00 95 1031.8
20240529213706 34 291 0.0 0.0 0.00 0.01 0.00 95 1031.8
20240529213207 34 291 0.0 0.0 0.00 0.01 0.00 95 1031.8
20240529212705 34 291 0.0 0.0 0.00 0.01 0.00 95 1031.7
20240529212206 34 291 0.0 0.0 0.00 0.01 0.00 95 1031.6
20240529211706 34 291 0.0 0.0 0.00 0.01 0.00 95 1031.5
20240529210705 34 291 0.0 0.0 0.00 0.01 0.00 95 1031.4
20240529210206 34 291 0.0 0.0 0.00 0.01 0.00 95 1031.4
20240529205706 34 291 0.0 0.0 0.00 0.01 0.00 95 1031.4
20240529205206 34 291 0.0 0.0 0.00 0.01 0.00 95 1031.3
20240529204706 34 291 0.0 0.0 0.00 0.01 0.00 95 1031.3
20240529204205 35 291 0.0 0.0 0.00 0.01 0.00 95 1031.3
20240529203705 35 291 0.0 0.0 0.00 0.01 0.00 95 1031.2
20240529203205 35 291 0.0 0.0 0.00 0.01 0.00 95 1031.2
20240529202706 35 291 0.0 0.0 0.00 0.01 0.00 95 1031.1
20240529202206 35 291 0.0 0.0 0.00 0.01 0.00 95 1031.1
20240529201706 34 291 0.0 0.0 0.00 0.01 0.00 95 1031.0
20240529201205 34 291 0.0 0.0 0.00 0.01 0.00 95 1031.0
20240529200705 35 291 0.0 0.0 0.00 0.01 0.00 94 1031.0
20240529200205 35 291 0.0 0.0 0.00 0.01 0.00 95 1030.8
20240529195706 35 291 0.0 0.0 0.00 0.01 0.00 95 1030.9
20240529194705 36 291 0.0 0.0 0.00 0.01 0.00 95 1030.9
20240529194207 36 291 0.0 0.0 0.00 0.01 0.00 95 1031.0
20240529193706 36 291 0.0 0.0 0.00 0.01 0.00 95 1031.1
20240529193205 36 291 0.0 0.0 0.00 0.01 0.00 95 1031.3
20240529192706 36 291 0.0 0.0 0.00 0.01 0.00 95 1031.5
20240529192205 35 291 0.0 0.0 0.00 0.01 0.00 95 1031.4
20240529191206 35 291 0.0 0.0 0.00 0.01 0.00 95 1031.3
20240529190205 35 291 0.0 0.0 0.00 0.01 0.00 95 1031.4
20240529185205 35 291 0.0 0.0 0.00 0.01 0.00 95 1031.7
20240529184705 35 291 0.0 0.0 0.00 0.01 0.00 94 1031.7
20240529184205 35 291 0.0 0.0 0.00 0.01 0.00 94 1031.8
20240529183705 35 291 0.0 0.0 0.00 0.01 0.00 94 1031.9
20240529183205 35 291 0.0 0.0 0.00 0.01 0.00 94 1032.0
20240529182706 35 291 0.0 0.0 0.00 0.01 0.00 94 1031.9
20240529182205 35 291 0.0 0.0 0.00 0.01 0.00 94 1032.0
20240529181706 36 291 0.0 0.0 0.00 0.01 0.00 94 1031.9
20240529181206 36 291 0.0 0.0 0.00 0.01 0.00 94 1032.0
20240529180706 36 291 0.0 0.0 0.00 0.01 0.00 99 1032.0
20240529180206 37 291 0.0 0.0 0.00 0.01 0.00 95 1032.0
20240529175706 37 291 0.0 0.0 0.00 0.01 0.00 98 1032.0
20240529175206 37 291 0.0 0.0 0.00 0.01 0.00 95 1032.0
20240529174206 36 291 0.0 0.0 0.00 0.01 0.00 95 1032.1
20240529173705 36 291 0.0 0.0 0.00 0.01 0.00 95 1032.0
20240529173206 36 291 0.0 0.0 0.00 0.01 0.00 95 1032.1
20240529172206 36 291 0.0 0.0 0.00 0.01 0.00 95 1032.1
20240529171705 36 291 0.0 0.0 0.00 0.01 0.00 95 1032.2
20240529170705 35 291 0.0 0.0 0.00 0.01 0.00 94 1032.2
20240529165705 35 291 0.0 0.0 0.00 0.01 0.00 94 1032.3
20240529165205 35 291 0.0 0.0 0.00 0.01 0.00 94 1032.3
20240529164705 35 291 0.0 0.0 0.00 0.01 0.00 94 1032.2
20240529164205 36 291 0.0 0.0 0.00 0.01 0.00 94 1032.2
20240529163705 36 291 0.0 0.0 0.00 0.01 0.00 94 1032.2
20240529163205 36 291 0.0 0.0 0.00 0.01 0.00 94 1032.2
20240529162205 37 291 0.0 0.0 0.00 0.01 0.00 94 1032.2
20240529161705 37 291 0.0 0.0 0.00 0.01 0.00 94 1032.2
20240529161205 36 291 0.0 0.0 0.00 0.01 0.00 94 1032.2
20240529160706 36 291 0.0 0.0 0.00 0.01 0.00 94 1032.3
20240529155705 36 291 0.0 0.0 0.00 0.01 0.00 94 1032.2
20240529155205 36 291 0.0 0.0 0.00 0.01 0.00 94 1032.3
20240529154206 37 291 0.0 0.0 0.00 0.01 0.00 94 1032.2
20240529153706 37 291 0.0 0.0 0.00 0.01 0.00 94 1032.2
20240529153205 37 291 0.0 0.0 0.00 0.01 0.00 94 1032.2
20240529152705 37 291 0.0 0.0 0.00 0.01 0.00 94 1032.2
20240529152206 37 291 0.0 0.0 0.00 0.01 0.00 93 1032.1
20240529151706 37 291 0.0 0.0 0.00 0.01 0.00 93 1032.0
20240529151206 37 291 0.0 0.0 0.00 0.01 0.00 93 1032.0
20240529150706 37 291 0.0 0.0 0.00 0.01 0.00 93 1031.9
20240529150205 38 291 0.0 0.0 0.00 0.01 0.00 94 1031.9
20240529145705 38 291 0.0 0.0 0.00 0.01 0.00 94 1031.9
20240529145205 38 291 0.0 0.0 0.00 0.01 0.00 94 1031.8
20240529144705 37 291 0.0 0.0 0.00 0.01 0.00 93 1031.9
20240529144206 37 291 0.0 0.0 0.00 0.01 0.00 93 1031.9
20240529143705 38 291 0.0 0.0 0.00 0.01 0.00 92 1031.9
20240529143205 38 291 0.0 0.0 0.00 0.01 0.00 93 1031.9
20240529142706 39 291 0.0 0.0 0.00 0.01 0.00 93 1032.0
20240529142205 39 291 0.0 0.0 0.00 0.01 0.00 94 1032.0
20240529141705 39 291 0.0 0.0 0.00 0.01 0.00 94 1032.1
20240529141205 39 291 0.0 0.0 0.00 0.01 0.00 94 1032.1
20240529140706 39 291 0.0 0.0 0.00 0.01 0.00 94 1032.1
20240529140206 38 291 0.0 0.0 0.00 0.01 0.00 93 1032.1
20240529135705 39 291 0.0 0.0 0.00 0.01 0.00 93 1032.2
20240529135205 39 291 0.0 0.0 0.00 0.01 0.00 93 1032.2
20240529134205 39 291 0.0 0.0 0.00 0.01 0.00 93 1032.2
20240529133706 39 291 0.0 0.0 0.00 0.01 0.00 93 1032.2
20240529133205 39 291 0.0 0.0 0.00 0.01 0.00 93 1032.3
20240529132705 39 291 0.0 0.0 0.00 0.01 0.00 93 1032.4
20240529131705 40 291 0.0 0.0 0.00 0.01 0.00 93 1032.6
20240529131205 40 291 0.0 0.0 0.00 0.01 0.00 93 1032.6
20240529130705 40 291 0.0 0.0 0.00 0.01 0.00 92 1032.6
20240529130205 40 291 0.0 0.0 0.00 0.01 0.00 93 1032.7
20240529125705 41 291 0.0 0.0 0.00 0.01 0.00 93 1032.8
20240529125205 41 291 0.0 0.0 0.00 0.01 0.00 93 1032.8
20240529124705 41 291 0.0 0.0 0.00 0.01 0.00 92 1032.9
20240529124205 41 291 0.0 1.0 0.00 0.01 0.00 92 1032.9
20240529123705 41 291 0.0 1.0 0.00 0.01 0.00 92 1032.9
20240529122705 42 291 0.0 1.0 0.00 0.01 0.00 92 1032.9
20240529122205 42 291 0.0 1.0 0.00 0.01 0.00 92 1032.9
20240529121705 42 291 0.0 0.0 0.00 0.01 0.00 92 1032.9
20240529121205 43 291 0.0 0.0 0.00 0.01 0.00 92 1032.9
20240529120705 43 291 0.0 0.0 0.00 0.01 0.00 93 1033.0
20240529120205 42 291 0.0 0.0 0.00 0.01 0.00 93 1032.9
20240529115705 42 291 0.0 0.0 0.00 0.01 0.00 92 1033.0
20240529115205 42 291 0.0 0.0 0.00 0.01 0.00 91 1033.0
20240529114705 42 291 0.0 0.0 0.00 0.01 0.00 91 1033.1
20240529114205 42 291 0.0 0.0 0.00 0.01 0.00 92 1033.0
20240529113705 42 291 0.0 0.0 0.00 0.01 0.00 91 1033.2
20240529113205 42 291 0.0 0.0 0.00 0.01 0.00 90 1033.1
20240529112705 42 291 0.0 0.0 0.00 0.01 0.00 90 1033.2
20240529111705 43 291 0.0 0.0 0.00 0.01 0.00 90 1033.2
20240529111205 43 291 0.0 0.0 0.00 0.01 0.00 89 1033.3
20240529110705 44 291 0.0 0.0 0.00 0.01 0.00 89 1033.3
20240529110207 44 291 0.0 0.0 0.00 0.01 0.00 90 1033.2
20240529105706 44 291 0.0 0.0 0.00 0.01 0.00 90 1033.2
20240529105205 44 291 0.0 0.0 0.00 0.01 0.00 90 1033.2
20240529104205 45 291 0.0 0.0 0.00 0.01 0.00 89 1033.1
20240529103705 45 291 0.0 0.0 0.00 0.01 0.00 89 1033.1
20240529103205 45 291 0.0 0.0 0.00 0.01 0.00 89 1033.1
20240529102705 45 291 0.0 0.0 0.00 0.01 0.00 89 1033.1
20240529102205 45 291 0.0 0.0 0.00 0.01 0.00 89 1033.1
20240529101705 45 291 0.0 0.0 0.00 0.01 0.00 88 1033.1
20240529100705 45 291 0.0 0.0 0.00 0.01 0.00 87 1033.0
20240529100205 46 291 0.0 0.0 0.00 0.01 0.00 86 1033.0
20240529095705 46 291 0.0 0.0 0.00 0.01 0.00 86 1033.0
20240529094705 46 291 0.0 0.0 0.00 0.01 0.00 85 1033.0
20240529093705 47 291 0.0 0.0 0.00 0.01 0.00 84 1032.9
20240529093205 47 291 0.0 0.0 0.00 0.01 0.00 84 1032.9
20240529092705 47 291 0.0 0.0 0.00 0.01 0.00 84 1032.8
20240529092205 48 291 0.0 0.0 0.00 0.01 0.00 83 1032.8
20240529091705 48 291 0.0 0.0 0.00 0.01 0.00 83 1032.8
20240529091205 48 291 0.0 0.0 0.00 0.01 0.00 83 1032.8
20240529090705 49 291 0.0 0.0 0.00 0.01 0.00 83 1032.8
20240529090204 49 291 0.0 0.0 0.00 0.01 0.00 83 1032.8
20240529085705 50 291 0.0 0.0 0.00 0.01 0.00 83 1032.7
20240529085205 50 291 0.0 0.0 0.00 0.01 0.00 82 1032.6
20240529084705 50 291 0.0 0.0 0.00 0.01 0.00 81 1032.7
20240529084205 50 291 0.0 0.0 0.00 0.01 0.00 81 1032.7
20240529083705 51 291 0.0 0.0 0.00 0.01 0.00 80 1032.8
20240529083205 51 291 0.0 0.0 0.00 0.01 0.00 80 1032.7
20240529082205 52 291 0.0 0.0 0.00 0.01 0.00 79 1032.6
20240529081206 52 291 0.0 0.0 0.00 0.01 0.00 79 1032.4
20240529080705 52 291 0.0 0.0 0.00 0.01 0.00 79 1032.4
20240529075705 53 291 0.0 0.0 0.00 0.01 0.00 77 1032.3
20240529075205 53 291 0.0 0.0 0.00 0.01 0.00 77 1032.3
20240529074704 53 291 0.0 0.0 0.00 0.01 0.00 77 1032.2
20240529073205 54 291 0.0 0.0 0.00 0.01 0.00 74 1032.0
20240529072705 55 291 0.0 0.0 0.00 0.01 0.00 73 1032.1
20240529072204 55 291 0.0 0.0 0.00 0.01 0.00 72 1032.0
20240529071705 56 291 0.0 0.0 0.00 0.01 0.00 71 1031.9
20240529071205 57 291 0.0 0.0 0.00 0.01 0.00 70 1031.9
20240529070705 57 291 0.0 0.0 0.00 0.01 0.00 69 1031.9
20240529070205 58 291 0.0 0.0 0.00 0.01 0.00 68 1031.9
20240529065705 59 291 0.0 0.0 0.00 0.01 0.00 66 1031.8
20240529064705 61 291 0.0 2.0 0.00 0.01 0.00 63 1031.8
20240529063205 62 291 2.0 3.0 0.00 0.01 0.00 63 1031.8
20240529062705 63 291 1.0 5.0 0.00 0.01 0.00 62 1031.7
20240529062205 63 291 2.0 7.0 0.00 0.01 0.00 62 1031.8
20240529061205 64 290 1.0 3.0 0.00 0.01 0.00 62 1031.8
20240529060705 64 290 1.0 3.0 0.00 0.01 0.00 61 1031.9
20240529060205 64 290 1.0 12.0 0.00 0.01 0.00 61 1031.8
20240529055705 64 290 2.0 12.0 0.00 0.01 0.00 61 1031.8
20240529055205 64 298 6.0 12.0 0.00 0.01 0.00 60 1031.9
20240529054705 64 269 2.0 7.0 0.00 0.01 0.00 61 1032.0
20240529054206 64 268 3.0 7.0 0.00 0.01 0.00 61 1032.0
20240529053705 64 261 3.0 7.0 0.00 0.01 0.00 60 1032.1
20240529053205 64 274 3.0 6.0 0.00 0.01 0.00 60 1032.1
20240529052705 64 272 2.0 8.0 0.00 0.01 0.00 60 1032.1
20240529052205 65 281 4.0 8.0 0.00 0.01 0.00 60 1032.1
20240529051705 65 279 2.0 7.0 0.00 0.01 0.00 60 1032.0
20240529051205 65 278 3.0 8.0 0.00 0.01 0.00 60 1032.0
20240529050705 65 288 3.0 10.0 0.00 0.01 0.00 59 1032.0
20240529050205 65 296 4.0 15.0 0.00 0.01 0.00 59 1031.9
20240529045705 65 305 8.0 15.0 0.00 0.01 0.00 58 1031.9
20240529044706 66 306 6.0 13.0 0.00 0.01 0.00 59 1032.0
20240529044206 66 284 6.0 12.0 0.00 0.01 0.00 60 1032.1
20240529043706 65 300 5.0 15.0 0.00 0.01 0.00 60 1032.1
20240529043205 65 296 6.0 17.0 0.00 0.01 0.00 59 1032.1
20240529042206 64 301 11.0 18.0 0.00 0.01 0.00 59 1032.2
20240529041705 64 307 10.0 16.0 0.00 0.01 0.00 60 1032.3
20240529041205 64 276 7.0 15.0 0.00 0.01 0.00 61 1032.2
20240529040205 64 301 10.0 17.0 0.00 0.01 0.00 59 1032.3
20240529035705 65 293 7.0 16.0 0.00 0.01 0.00 62 1032.3
20240529035205 64 294 6.0 20.0 0.00 0.01 0.00 63 1032.4
20240529035028 64 293 10.0 20.0 0.00 0.01 0.00 61 1032.6
20240529034237 64 293 11.0 17.0 0.00 0.01 0.00 60 1032.7
20240529033219 64 308 16.0 21.0 0.00 0.01 0.00 61 1032.7
20240529025819 64 306 12.0 20.0 0.00 0.01 0.00 62 1033.1
20240529024518 64 307 9.0 16.0 0.00 0.01 0.00 63 1033.5
20240529023317 63 309 8.0 16.0 0.00 0.01 0.00 65 1033.5
20240529021912 62 316 6.0 12.0 0.00 0.01 0.00 66 1033.9
20240529014318 61 317 6.0 12.0 0.00 0.01 0.00 67 1034.4
20240529013216 58 322 2.0 7.0 0.00 0.01 0.00 71 1034.9